Kineis-2C

operational
NORAD ID: 62929 Int'l Des: 2025-028 Owner: KINEIS Country: F
LEOCIRCULARRETROGRADESSO

About Kineis-2C

Description loading...

Live Position

Loading 3D Globe...

Upcoming Passes

Altitude History

Altitude vs Time

uPlot chart will show altitude changes over time

Two-Line Element Set

1 62929U 25028B 26062.13490234 .00001483 00000-0 24257-3 0 9996
2 62929 98.0287 117.3832 0001411 43.4084 316.7234 14.72293260 57003
Epoch: Mar 3, 2026 • Age: 17 hours

Current Status

Altitude 659.1 km
Velocity 7.53 km/s
Sub-Earth Point 37.33°N, 111.35°W
Launch Date Feb 8, 2025
Age 1 years
Type other

Technical Details

Classification Payload
Mass 28.00 kg
Dry Mass 28.00 kg
Total Mass 28.00 kg
Length 0.40 m
Diameter 0.20 m
Span 1.60 m
Shape Box+ 2 pan + ant
Manufacturer KINEIS
Bus Type Cubesat 16U
Phase Status In Orbit
Owner/State KINEIS/F

Large Constellations

Loading constellations...